COSMOS 2353

Satellite information

Favourite Embed

Satellite Type and Status

PAYLOADIN ORBIT

Key statistics

Satellite COSMOS 2353 at a glance.

Uptime

9946

Days in orbit

Revolutions

≈ 12.2

Per day

Orbit

LEO

Low Earth Orbit

Inclination

82.6

Latest

Satellite identification and parameters

Extended collection of information and parameters for COSMOS 2353.

Object identification

Identified? True

Debris? False

Object name: COSMOS 2353

International designator: 1998-036B

Object number (NORAD): 25364

Object ID (CCSDS): 25364

Country: COMMONWEALTH OF INDEPENDENT STATES (CIS)

Current information (Y/N): Y

RCS size: MEDIUM

Orbital parameters

Period: 117.855 minutes

Inclination: 82.5926 deg

SMA: 7962.689 km

Apoapsis: 1868.733 km

Periapsis: 1300.375 km

RAAN: 148.9729 deg

Eccentricy: 0.03568879

Argument of periapsis: 69.3348 deg

Mean anomaly: 294.56 deg

Mean motion: 12.21836577 rev/day

Mean motion (dot): 0.00000057 rev/day2

B* drag term: 0.00034638416 1/REarth

Two-line elements (TLE)

Creation date: Sept. 7, 2025, 3:09 a.m.

Reference frame: TEME

Reference center: EARTH

Epoch: Sept. 6, 2025, 7:23 p.m. UTC

TLE line 0: 0 COSMOS 2353

TLE line 1: 1 25364U 98036B 25249.80790450 .00000057 00000-0 34638-3 0 9990

TLE line 2: 2 25364 82.5926 148.9729 0356888 69.3348 294.5600 12.21836577214426

Live tracking on map

Real-time ground track for satellite COSMOS 2353.

In-orbit conjunctions

A list of the most updated potential collisions computed for object COSMOS 2353.

Target Orbit TCA Probability of collision Miss distance Type
DELTA 1 DEB SSO 2025-07-04 23:14:05 0.0001105203 279.0 (m) DEBRIS
SL-14 R/B LEO 2025-05-06 05:25:15 0.0002412205 132.0 (m) ROCKET BODY
FENGYUN 1C DEB SSO 2025-04-04 07:47:48 0.0001392311 339.0 (m) DEBRIS

Associated space launch

Second generation store-dump military communications satellites

COSMOS 2353 was lifted into orbit during the mission ‘Tsiklon-3 | Strela-3 119 to 124’, on board a Tsiklon-3 space rocket.

The launch took place on June 15, 1998, 10:58 p.m. from 32/1.

For more information about the launch, click the button.

Launch to space Tsiklon-3 | Strela-3 119 to 124
Tsiklon-3 | Strela-3 119 to 124

Agency: N/A

Status: Launch Successful

Launch date: June 15, 1998, 10:58 p.m. UTC

Rocket: Tsiklon-3

Launch pad: 32/1

Location: Plesetsk Cosmodrome, Russian Federation

...

Latest news about this satellite

There are no fresh news available about this satellite. Check back as we update our databases every day.


Newsletter sign-up

Weekly statistics, charts and insights to help you stay on top of the space industry.